Location: Mapua
(41.2500°S, 173.1000°E)
Time: 07:35:04
(UTC+12:00)

Tiangong 2 - Visible Passes

Search period start: 25 May 2017 00:00
Search period end: 04 June 2017 00:00
Orbit: 380 x 389 km, 42.8° (Epoch: 24 May)

Date Brightness Start Highest point End Pass type
(mag) Time Alt. Az. Time Alt. Az. Time Alt. Az.
28 May 3.3 06:57:24 10° NNW 07:00:08 26° NNE 07:02:53 10° E visible
29 May 4.0 05:58:39 10° N 06:00:40 16° NE 06:02:41 10° ENE visible
30 May 2.2 06:34:21 10° NW 06:37:23 43° NNE 06:40:28 10° E visible
31 May 3.0 05:37:41 26° NNE 05:37:50 26° NNE 05:40:35 10° E visible
31 May 1.1 07:11:09 10° WNW 07:14:22 86° SSW 07:17:35 10° ESE visible
01 Jun 1.3 06:13:27 33° NW 06:14:41 67° NNE 06:17:52 10° ESE visible
02 Jun 3.8 05:16:50 20° E 05:16:50 20° E 05:18:06 10° E visible
02 Jun 1.1 06:49:03 14° W 06:51:43 70° S 06:54:55 10° ESE visible
03 Jun 1.3 05:52:19 68° ESE 05:52:19 68° ESE 05:55:11 10° ESE visible
